FW7576 Weather Reports


time (UTC)temp
C
wind
direction
speed
KPH
gust
KPH
rain 1hr
cm
rain 24hr
cm
rain mn
cm
humidity
%
barometer
mb
20260903234544 23 101 1.6 8.0 0.00 0.89 0.89 81 1013.7
20260903233046 23 69 3.2 9.7 0.00 0.89 0.89 80 1013.9
20260903231548 23 133 3.2 11.3 0.00 0.89 0.89 80 1013.6
20260903230049 24 65 3.2 14.5 0.00 0.89 0.89 80 1013.8
20260903224543 24 200 3.2 11.3 0.00 0.89 0.89 81 1013.9
20260903223047 24 161 3.2 9.7 0.00 0.89 0.89 80 1013.6
20260903221544 24 117 3.2 8.0 0.00 0.89 0.89 80 1013.8
20260903220047 24 94 1.6 8.0 0.00 0.89 0.89 80 1013.8
20260903214550 24 105 4.8 9.7 0.00 0.89 0.89 79 1013.8
20260903213046 24 68 6.4 14.5 0.00 0.89 0.89 77 1013.8
20260903211543 24 63 4.8 12.9 0.00 0.89 0.89 78 1013.7
20260903210045 24 73 4.8 8.0 0.00 0.89 0.89 83 1013.8
20260903204550 23 80 3.2 11.3 0.00 0.89 0.89 85 1013.9
20260903203045 24 68 6.4 16.1 0.00 0.89 0.89 83 1014.0
20260903201555 25 0 0.0 0.0 0.00 0.89 0.89 85 1013.9
20260903200043 26 0 0.0 1.6 0.00 0.89 0.89 85 1013.6
20260903194542 25 0 0.0 0.0 0.00 0.89 0.89 86 1013.4
20260903193046 25 0 0.0 0.0 0.00 0.89 0.89 85 1013.7
20260903191551 25 0 0.0 1.6 0.00 0.89 0.89 85 1014.0
20260903190044 25 0 0.0 3.2 0.00 0.89 0.89 85 1014.1
20260903184556 24 0 0.0 3.2 0.00 0.89 0.89 85 1013.8
20260903183045 23 0 0.0 1.6 0.20 0.89 0.89 83 1013.8
20260903181549 22 296 1.6 4.8 0.20 0.89 0.89 84 1014.7
20260903180051 22 34 3.2 6.4 0.41 0.89 0.89 83 1014.4
20260903174544 22 153 1.6 9.7 0.41 0.89 0.89 84 1013.7
20260903173050 22 0 0.0 3.2 0.23 0.69 0.69 84 1013.8
20260903171548 21 127 3.2 6.4 0.33 0.69 0.69 85 1014.3
20260903170045 21 214 1.6 4.8 0.25 0.48 0.48 85 1015.7
20260903164555 21 212 1.6 6.4 0.33 0.48 0.48 86 1016.3
20260903163049 21 199 3.2 4.8 0.33 0.46 0.46 86 1016.9
20260903161551 21 247 6.4 16.1 0.23 0.36 0.36 87 1016.9
20260903160044 21 267 8.0 20.9 0.10 0.23 0.23 87 1016.4
20260903154550 21 269 6.4 17.7 0.03 0.15 0.15 85 1016.0
20260903153043 22 317 6.4 14.5 0.00 0.13 0.13 83 1015.4
20260903151543 22 300 6.4 16.1 0.00 0.13 0.13 79 1015.5
20260903150049 22 304 4.8 12.9 0.00 0.13 0.13 77 1015.3
20260903144545 23 48 8.0 17.7 0.00 0.13 0.13 74 1014.8
20260903143104 23 318 9.7 25.7 0.00 0.13 0.13 71 1014.7
20260903141542 22 300 8.0 35.4 0.00 0.13 0.13 76 1015.4
20260903140044 23 14 16.1 33.8 0.00 0.13 0.13 74 1014.9
20260903134548 22 297 16.1 30.6 0.00 0.13 0.13 81 1015.6
20260903133046 23 23 8.0 25.7 0.03 0.13 0.13 80 1015.1
20260903131602 24 295 9.7 16.1 0.03 0.13 0.13 86 1015.0
20260903130044 24 0 0.0 4.8 0.03 0.13 0.13 86 1013.5
20260903124546 24 231 0.0 3.2 0.03 0.13 0.13 83 1013.1
20260903123048 23 0 0.0 0.0 0.00 0.10 0.10 81 1013.3
20260903121543 23 0 0.0 0.0 0.00 0.10 0.10 81 1013.4
20260903120042 22 0 0.0 0.0 0.00 0.10 0.10 81 1013.3
20260903114548 22 0 0.0 0.0 0.00 0.10 0.10 82 1013.2
20260903113045 22 0 0.0 0.0 0.00 0.10 0.10 82 1013.4
20260903111541 22 0 0.0 0.0 0.00 0.10 0.10 82 1013.5
20260903110046 22 0 0.0 0.0 0.00 0.10 0.10 82 1013.5
20260903104543 22 0 0.0 0.0 0.00 0.10 0.10 83 1013.3
20260903103044 22 0 0.0 0.0 0.00 0.10 0.10 83 1013.4
20260903101543 22 0 0.0 0.0 0.00 0.10 0.10 84 1013.5
20260903100048 22 0 0.0 0.0 0.00 0.10 0.10 84 1013.5
20260903094546 22 0 0.0 0.0 0.00 0.10 0.10 84 1013.6
20260903093045 22 0 0.0 0.0 0.00 0.10 0.10 84 1013.6
20260903091540 22 0 0.0 0.0 0.00 0.10 0.10 84 1013.6
20260903090046 22 0 0.0 0.0 0.00 0.10 0.10 85 1013.4
20260903084543 22 0 0.0 0.0 0.00 0.10 0.10 85 1013.5
20260903083051 22 0 0.0 0.0 0.00 0.10 0.10 85 1013.5
20260903081547 22 0 0.0 0.0 0.00 0.10 0.10 85 1013.4
20260903080051 22 0 0.0 0.0 0.10 0.10 0.10 86 1013.6
20260903074543 23 0 0.0 0.0 0.10 0.10 0.10 86 1013.5
20260903073043 23 0 0.0 1.6 0.10 0.10 0.10 87 1013.4
20260903071543 23 144 3.2 9.7 0.10 0.10 0.10 87 1013.4
20260903070048 23 0 0.0 0.0 0.00 0.00 0.00 87 1013.5
20260903064542 24 0 0.0 0.0 0.00 0.00 0.00 86 1013.6
20260903063042 24 0 0.0 1.6 0.00 0.00 0.00 86 1013.6
20260903061551 24 0 0.0 1.6 0.00 0.00 0.00 86 1013.6
20260903060045 25 0 0.0 0.0 0.00 0.00 0.00 87 1013.6
20260903054544 25 0 0.0 0.0 0.00 0.00 0.00 87 1013.7
20260903053049 25 0 0.0 0.0 0.00 0.00 0.00 86 1013.7
20260903051547 25 0 0.0 1.6 0.00 0.00 0.00 86 1013.9
20260903050050 25 0 0.0 1.6 0.00 0.00 0.00 86 1013.7
20260903044542 25 0 0.0 0.0 0.00 0.00 0.00 86 1013.5
20260903043048 25 0 0.0 0.0 0.00 0.00 0.00 87 1013.4
20260903041546 25 0 0.0 0.0 0.00 0.00 0.00 86 1013.4
20260903040045 25 0 0.0 0.0 0.00 0.00 0.00 86 1013.3
20260903034544 25 0 0.0 0.0 0.00 0.00 0.00 86 1013.4
20260903033047 25 0 0.0 0.0 0.00 0.00 0.00 86 1013.3
20260903031547 25 0 0.0 0.0 0.00 0.00 0.00 86 1013.3
20260903030043 26 0 0.0 0.0 0.00 0.00 0.00 85 1013.3
20260903024546 26 0 0.0 0.0 0.00 0.00 0.00 85 1013.3
20260903023056 26 0 0.0 0.0 0.00 0.00 0.00 84 1013.3
20260903021544 26 0 0.0 0.0 0.00 0.00 0.00 83 1013.2
20260903020053 26 0 0.0 0.0 0.00 0.00 0.00 83 1013.2
20260903014543 27 0 0.0 0.0 0.00 0.00 0.00 82 1013.1
20260903013052 27 0 0.0 0.0 0.00 0.00 0.00 80 1013.0
20260903011540 27 0 0.0 0.0 0.00 0.00 0.00 79 1012.8
20260903010043 28 0 0.0 0.0 0.00 0.00 0.00 77 1012.7
20260903004549 28 0 0.0 0.0 0.00 0.00 0.00 75 1012.5
20260903003048 29 0 0.0 3.2 0.00 0.00 0.00 73 1012.4
20260903001545 30 0 0.0 3.2 0.00 0.00 0.00 71 1012.5
20260903000042 30 252 0.0 4.8 0.00 0.00 0.00 70 1012.7